| time (UTC) | temp F | wind direction | speed MPH | gust MPH | rain 1hr in | rain 24hr in | rain mn in | humidity % | barometer mb |
| 20260903001514 | 82 | 317 | 0.0 | 1.0 | 0.00 | 0.00 | 0.00 | 77 | 1017.0 |
| 20260903001013 | 83 | 304 | 0.0 | 1.0 | 0.00 | 0.00 | 0.00 | 76 | 1016.9 |
| 20260903000508 | 83 | 320 | 0.0 | 1.0 | 0.00 | 0.00 | 0.00 | 74 | 1017.0 |
| 20260903000007 | 84 | 69 | 0.0 | 0.0 | 0.00 | 0.00 | 0.00 | 74 | 1017.1 |
| 20260902235501 | 84 | 326 | 0.0 | 1.0 | 0.00 | 0.00 | 0.00 | 72 | 1017.1 |
| 20260902234956 | 85 | 41 | 0.0 | 0.0 | 0.00 | 0.00 | 0.00 | 71 | 1016.9 |
| 20260902234451 | 85 | 129 | 0.0 | 1.0 | 0.00 | 0.00 | 0.00 | 70 | 1017.2 |
| 20260902233950 | 86 | 127 | 0.0 | 2.0 | 0.00 | 0.00 | 0.00 | 70 | 1017.0 |
| 20260902233449 | 86 | 129 | 0.0 | 2.0 | 0.00 | 0.00 | 0.00 | 68 | 1017.0 |
| 20260902232944 | 87 | 99 | 0.0 | 1.0 | 0.00 | 0.00 | 0.00 | 67 | 1017.1 |
| 20260902232438 | 87 | 142 | 0.0 | 2.0 | 0.00 | 0.00 | 0.00 | 66 | 1016.9 |
| 20260902231933 | 87 | 126 | 2.0 | 2.0 | 0.00 | 0.00 | 0.00 | 65 | 1017.2 |
| 20260902231428 | 88 | 142 | 0.0 | 1.0 | 0.00 | 0.00 | 0.00 | 64 | 1017.3 |
| 20260902230928 | 88 | 154 | 0.0 | 1.0 | 0.00 | 0.00 | 0.00 | 64 | 1017.2 |
| 20260902230422 | 89 | 138 | 1.0 | 2.0 | 0.00 | 0.00 | 0.00 | 62 | 1017.3 |
| 20260902225921 | 90 | 142 | 0.0 | 2.0 | 0.00 | 0.00 | 0.00 | 62 | 1017.1 |
| 20260902225417 | 90 | 104 | 0.0 | 2.0 | 0.00 | 0.00 | 0.00 | 61 | 1017.2 |
| 20260902224915 | 89 | 135 | 0.0 | 4.0 | 0.00 | 0.00 | 0.00 | 62 | 1017.3 |
| 20260902224415 | 90 | 58 | 1.0 | 4.0 | 0.00 | 0.00 | 0.00 | 61 | 1017.3 |
| 20260902223913 | 91 | 88 | 1.0 | 2.0 | 0.00 | 0.00 | 0.00 | 59 | 1017.1 |
| 20260902223412 | 91 | 53 | 0.0 | 2.0 | 0.00 | 0.00 | 0.00 | 58 | 1017.1 |
| 20260902222907 | 92 | 93 | 0.0 | 3.0 | 0.00 | 0.00 | 0.00 | 56 | 1017.1 |
| 20260902222405 | 92 | 59 | 2.0 | 4.0 | 0.00 | 0.00 | 0.00 | 56 | 1017.3 |
| 20260902221900 | 92 | 27 | 2.0 | 3.0 | 0.00 | 0.00 | 0.00 | 57 | 1017.3 |
| 20260902221359 | 92 | 99 | 3.0 | 4.0 | 0.00 | 0.00 | 0.00 | 58 | 1017.3 |
| 20260902220855 | 93 | 156 | 1.0 | 2.0 | 0.00 | 0.00 | 0.00 | 56 | 1017.3 |
| 20260902220354 | 93 | 50 | 1.0 | 2.0 | 0.00 | 0.00 | 0.00 | 54 | 1017.2 |
| 20260902215849 | 94 | 33 | 2.0 | 3.0 | 0.00 | 0.00 | 0.00 | 54 | 1017.2 |
| 20260902215344 | 94 | 25 | 3.0 | 4.0 | 0.00 | 0.00 | 0.00 | 53 | 1017.4 |
| 20260902214840 | 94 | 104 | 0.0 | 2.0 | 0.00 | 0.00 | 0.00 | 54 | 1017.2 |
| 20260902214339 | 95 | 108 | 2.0 | 3.0 | 0.00 | 0.00 | 0.00 | 51 | 1017.2 |
| 20260902213834 | 95 | 60 | 2.0 | 2.0 | 0.00 | 0.00 | 0.00 | 53 | 1017.3 |
| 20260902213330 | 95 | 77 | 2.0 | 2.0 | 0.00 | 0.00 | 0.00 | 52 | 1017.4 |
| 20260902212828 | 94 | 66 | 0.0 | 2.0 | 0.00 | 0.00 | 0.00 | 54 | 1017.3 |
| 20260902212325 | 93 | 117 | 0.0 | 3.0 | 0.00 | 0.00 | 0.00 | 53 | 1017.6 |
| 20260902211821 | 95 | 8 | 1.0 | 4.0 | 0.00 | 0.00 | 0.00 | 52 | 1017.4 |
| 20260902211317 | 95 | 36 | 2.0 | 4.0 | 0.00 | 0.00 | 0.00 | 52 | 1017.4 |
| 20260902210812 | 95 | 314 | 2.0 | 3.0 | 0.00 | 0.00 | 0.00 | 52 | 1017.3 |
| 20260902210306 | 95 | 20 | 4.0 | 5.0 | 0.00 | 0.00 | 0.00 | 52 | 1017.3 |
| 20260902205804 | 95 | 342 | 3.0 | 5.0 | 0.00 | 0.00 | 0.00 | 51 | 1017.5 |
| 20260902205259 | 94 | 81 | 2.0 | 3.0 | 0.00 | 0.00 | 0.00 | 55 | 1017.5 |
| 20260902204754 | 95 | 70 | 0.0 | 3.0 | 0.00 | 0.00 | 0.00 | 52 | 1017.5 |
| 20260902204250 | 96 | 41 | 3.0 | 3.0 | 0.00 | 0.00 | 0.00 | 52 | 1017.5 |
| 20260902203744 | 95 | 39 | 4.0 | 5.0 | 0.00 | 0.00 | 0.00 | 52 | 1017.3 |
| 20260902203239 | 94 | 66 | 0.0 | 2.0 | 0.00 | 0.00 | 0.00 | 52 | 1017.6 |
| 20260902202734 | 96 | 19 | 2.0 | 4.0 | 0.00 | 0.00 | 0.00 | 49 | 1017.6 |
| 20260902202230 | 96 | 31 | 4.0 | 4.0 | 0.00 | 0.00 | 0.00 | 51 | 1017.8 |
| 20260902201727 | 96 | 51 | 2.0 | 4.0 | 0.00 | 0.00 | 0.00 | 50 | 1017.8 |
| 20260902201226 | 96 | 44 | 3.0 | 4.0 | 0.00 | 0.00 | 0.00 | 52 | 1017.6 |
| 20260902200721 | 96 | 145 | 2.0 | 3.0 | 0.00 | 0.00 | 0.00 | 51 | 1017.8 |
| 20260902200216 | 94 | 17 | 1.0 | 4.0 | 0.00 | 0.00 | 0.00 | 53 | 1017.7 |
| 20260902195712 | 93 | 157 | 0.0 | 4.0 | 0.00 | 0.00 | 0.00 | 54 | 1017.8 |
| 20260902195211 | 96 | 143 | 5.0 | 7.0 | 0.00 | 0.00 | 0.00 | 51 | 1017.8 |
| 20260902194705 | 97 | 44 | 4.0 | 6.0 | 0.00 | 0.00 | 0.00 | 49 | 1017.9 |
| 20260902194200 | 97 | 94 | 0.0 | 3.0 | 0.00 | 0.00 | 0.00 | 48 | 1017.9 |
| 20260902193655 | 98 | 27 | 2.0 | 3.0 | 0.00 | 0.00 | 0.00 | 50 | 1018.2 |
| 20260902193150 | 97 | 21 | 3.0 | 4.0 | 0.00 | 0.00 | 0.00 | 49 | 1018.4 |
| 20260902192649 | 96 | 72 | 1.0 | 4.0 | 0.00 | 0.00 | 0.00 | 51 | 1018.1 |
| 20260902192143 | 97 | 97 | 4.0 | 7.0 | 0.00 | 0.00 | 0.00 | 50 | 1018.5 |
| 20260902191637 | 97 | 40 | 2.0 | 4.0 | 0.00 | 0.00 | 0.00 | 48 | 1018.2 |
| 20260902191131 | 97 | 63 | 0.0 | 3.0 | 0.00 | 0.00 | 0.00 | 48 | 1018.3 |
| 20260902190627 | 97 | 79 | 4.0 | 7.0 | 0.00 | 0.00 | 0.00 | 48 | 1018.3 |
| 20260902190122 | 97 | 248 | 2.0 | 4.0 | 0.00 | 0.00 | 0.00 | 50 | 1018.4 |
| 20260902185618 | 97 | 28 | 2.0 | 5.0 | 0.00 | 0.00 | 0.00 | 49 | 1018.5 |
| 20260902185114 | 98 | 36 | 4.0 | 5.0 | 0.00 | 0.00 | 0.00 | 48 | 1018.5 |
| 20260902184608 | 98 | 97 | 2.0 | 3.0 | 0.00 | 0.00 | 0.00 | 49 | 1018.3 |
| 20260902184058 | 98 | 85 | 1.0 | 5.0 | 0.00 | 0.00 | 0.00 | 50 | 1018.4 |
| 20260902183555 | 98 | 21 | 2.0 | 4.0 | 0.00 | 0.00 | 0.00 | 50 | 1018.6 |
| 20260902183051 | 99 | 303 | 2.0 | 4.0 | 0.00 | 0.00 | 0.00 | 48 | 1018.5 |
| 20260902182546 | 96 | 32 | 2.0 | 5.0 | 0.00 | 0.00 | 0.00 | 51 | 1018.5 |
| 20260902182043 | 98 | 21 | 1.0 | 4.0 | 0.00 | 0.00 | 0.00 | 48 | 1018.6 |
| 20260902181538 | 97 | 29 | 2.0 | 5.0 | 0.00 | 0.00 | 0.00 | 51 | 1018.4 |
| 20260902181038 | 97 | 316 | 4.0 | 4.0 | 0.00 | 0.00 | 0.00 | 50 | 1019.0 |
| 20260902180532 | 98 | 43 | 2.0 | 3.0 | 0.00 | 0.00 | 0.00 | 48 | 1018.9 |
| 20260902180029 | 96 | 94 | 2.0 | 6.0 | 0.00 | 0.00 | 0.00 | 50 | 1018.9 |
| 20260902175528 | 97 | 48 | 3.0 | 4.0 | 0.00 | 0.00 | 0.00 | 51 | 1018.6 |
| 20260902175024 | 96 | 99 | 1.0 | 5.0 | 0.00 | 0.00 | 0.00 | 51 | 1019.0 |
| 20260902174520 | 97 | 42 | 0.0 | 3.0 | 0.00 | 0.00 | 0.00 | 49 | 1018.9 |
| 20260902174010 | 96 | 86 | 2.0 | 4.0 | 0.00 | 0.00 | 0.00 | 51 | 1018.9 |
| 20260902173509 | 96 | 34 | 4.0 | 7.0 | 0.00 | 0.00 | 0.00 | 51 | 1018.9 |
| 20260902173004 | 96 | 288 | 2.0 | 4.0 | 0.00 | 0.00 | 0.00 | 49 | 1019.1 |
| 20260902172503 | 96 | 30 | 3.0 | 4.0 | 0.00 | 0.00 | 0.00 | 50 | 1019.1 |
| 20260902171959 | 96 | 42 | 1.0 | 5.0 | 0.00 | 0.00 | 0.00 | 52 | 1019.3 |
| 20260902171454 | 96 | 73 | 1.0 | 4.0 | 0.00 | 0.00 | 0.00 | 51 | 1019.3 |
| 20260902170950 | 96 | 68 | 2.0 | 3.0 | 0.00 | 0.00 | 0.00 | 52 | 1019.4 |
| 20260902170445 | 96 | 55 | 4.0 | 5.0 | 0.00 | 0.00 | 0.00 | 51 | 1019.4 |
| 20260902165941 | 96 | 57 | 2.0 | 6.0 | 0.00 | 0.00 | 0.00 | 51 | 1019.2 |
| 20260902165440 | 96 | 125 | 1.0 | 4.0 | 0.00 | 0.00 | 0.00 | 52 | 1019.4 |
| 20260902164935 | 96 | 49 | 3.0 | 4.0 | 0.00 | 0.00 | 0.00 | 50 | 1019.2 |
| 20260902164430 | 96 | 36 | 3.0 | 3.0 | 0.00 | 0.00 | 0.00 | 51 | 1019.4 |
| 20260902163929 | 96 | 39 | 4.0 | 4.0 | 0.00 | 0.00 | 0.00 | 51 | 1019.7 |
| 20260902163425 | 95 | 6 | 4.0 | 4.0 | 0.00 | 0.00 | 0.00 | 50 | 1019.5 |
| 20260902162922 | 95 | 314 | 2.0 | 4.0 | 0.00 | 0.00 | 0.00 | 55 | 1019.6 |
| 20260902162418 | 95 | 29 | 2.0 | 4.0 | 0.00 | 0.00 | 0.00 | 54 | 1019.6 |
| 20260902161917 | 94 | 9 | 3.0 | 3.0 | 0.00 | 0.00 | 0.00 | 52 | 1019.7 |
| 20260902161412 | 94 | 18 | 4.0 | 6.0 | 0.00 | 0.00 | 0.00 | 54 | 1019.9 |
| 20260902160908 | 94 | 164 | 4.0 | 5.0 | 0.00 | 0.00 | 0.00 | 56 | 1019.6 |
| 20260902160404 | 93 | 38 | 0.0 | 4.0 | 0.00 | 0.00 | 0.00 | 56 | 1019.9 |
| 20260902155901 | 93 | 296 | 2.0 | 6.0 | 0.00 | 0.00 | 0.00 | 57 | 1019.8 |
| 20260902155356 | 93 | 111 | 4.0 | 4.0 | 0.00 | 0.00 | 0.00 | 55 | 1020.0 |
| 20260902154851 | 92 | 159 | 2.0 | 6.0 | 0.00 | 0.00 | 0.00 | 58 | 1019.9 |
| 20260902154347 | 92 | 124 | 5.0 | 7.0 | 0.00 | 0.00 | 0.00 | 57 | 1019.9 |
| 20260902153845 | 91 | 185 | 2.0 | 6.0 | 0.00 | 0.00 | 0.00 | 58 | 1020.0 |
| 20260902153345 | 92 | 152 | 6.0 | 6.0 | 0.00 | 0.00 | 0.00 | 58 | 1019.8 |
| 20260902152841 | 92 | 76 | 2.0 | 4.0 | 0.00 | 0.00 | 0.00 | 61 | 1020.0 |
| 20260902152337 | 91 | 131 | 4.0 | 7.0 | 0.00 | 0.00 | 0.00 | 62 | 1020.0 |
| 20260902151832 | 94 | 122 | 3.0 | 4.0 | 0.00 | 0.00 | 0.00 | 57 | 1020.1 |
| 20260902151327 | 94 | 187 | 1.0 | 3.0 | 0.00 | 0.00 | 0.00 | 56 | 1020.0 |
| 20260902150821 | 92 | 48 | 3.0 | 3.0 | 0.00 | 0.00 | 0.00 | 58 | 1019.9 |
| 20260902150318 | 93 | 214 | 1.0 | 4.0 | 0.00 | 0.00 | 0.00 | 60 | 1019.8 |
| 20260902145817 | 92 | 29 | 2.0 | 3.0 | 0.00 | 0.00 | 0.00 | 60 | 1019.7 |
| 20260902145313 | 91 | 131 | 0.0 | 3.0 | 0.00 | 0.00 | 0.00 | 61 | 1019.9 |
| 20260902144808 | 90 | 114 | 2.0 | 5.0 | 0.00 | 0.00 | 0.00 | 65 | 1020.0 |
| 20260902144304 | 90 | 143 | 0.0 | 4.0 | 0.00 | 0.00 | 0.00 | 63 | 1020.0 |
| 20260902143758 | 91 | 165 | 1.0 | 2.0 | 0.00 | 0.00 | 0.00 | 63 | 1019.9 |
| 20260902143253 | 90 | 31 | 1.0 | 3.0 | 0.00 | 0.00 | 0.00 | 63 | 1020.0 |
| 20260902142749 | 90 | 26 | 3.0 | 4.0 | 0.00 | 0.00 | 0.00 | 62 | 1020.0 |
| 20260902142244 | 90 | 69 | 1.0 | 2.0 | 0.00 | 0.00 | 0.00 | 64 | 1020.1 |
| 20260902141744 | 89 | 311 | 2.0 | 4.0 | 0.00 | 0.00 | 0.00 | 64 | 1020.0 |
| 20260902141240 | 90 | 152 | 1.0 | 2.0 | 0.00 | 0.00 | 0.00 | 65 | 1019.9 |
| 20260902140735 | 88 | 133 | 2.0 | 3.0 | 0.00 | 0.00 | 0.00 | 67 | 1019.8 |
| 20260902140230 | 88 | 70 | 0.0 | 3.0 | 0.00 | 0.00 | 0.00 | 67 | 1019.9 |
| 20260902135729 | 88 | 29 | 0.0 | 3.0 | 0.00 | 0.00 | 0.00 | 67 | 1020.2 |
| 20260902135225 | 88 | 158 | 4.0 | 4.0 | 0.00 | 0.00 | 0.00 | 68 | 1019.9 |
| 20260902134724 | 88 | 100 | 1.0 | 2.0 | 0.00 | 0.00 | 0.00 | 69 | 1020.0 |
| 20260902134220 | 87 | 353 | 0.0 | 2.0 | 0.00 | 0.00 | 0.00 | 69 | 1019.9 |
| 20260902133716 | 86 | 343 | 0.0 | 2.0 | 0.00 | 0.00 | 0.00 | 71 | 1020.0 |
| 20260902133214 | 87 | 172 | 1.0 | 2.0 | 0.00 | 0.00 | 0.00 | 70 | 1020.0 |
| 20260902132710 | 86 | 60 | 0.0 | 2.0 | 0.00 | 0.00 | 0.00 | 71 | 1020.0 |
| 20260902132205 | 86 | 146 | 2.0 | 2.0 | 0.00 | 0.00 | 0.00 | 73 | 1020.0 |
| 20260902131701 | 86 | 138 | 0.0 | 2.0 | 0.00 | 0.00 | 0.00 | 74 | 1020.3 |
| 20260902131157 | 86 | 46 | 0.0 | 3.0 | 0.00 | 0.00 | 0.00 | 75 | 1020.1 |
| 20260902130652 | 85 | 285 | 2.0 | 2.0 | 0.00 | 0.00 | 0.00 | 74 | 1019.9 |
| 20260902130147 | 85 | 273 | 1.0 | 2.0 | 0.00 | 0.00 | 0.00 | 76 | 1020.0 |
| 20260902125643 | 84 | 244 | 0.0 | 2.0 | 0.00 | 0.00 | 0.00 | 76 | 1019.8 |
| 20260902125138 | 82 | 279 | 2.0 | 2.0 | 0.00 | 0.00 | 0.00 | 81 | 1019.9 |
| 20260902124635 | 79 | 304 | 1.0 | 2.0 | 0.00 | 0.00 | 0.00 | 87 | 1020.1 |
| 20260902124135 | 77 | 296 | 0.0 | 2.0 | 0.00 | 0.00 | 0.00 | 92 | 1019.8 |
| 20260902123631 | 75 | 257 | 1.0 | 2.0 | 0.00 | 0.00 | 0.00 | 99 | 1020.0 |
| 20260902123130 | 73 | 316 | 1.0 | 2.0 | 0.00 | 0.00 | 0.00 | 99 | 1019.7 |
| 20260902122625 | 73 | 294 | 1.0 | 2.0 | 0.00 | 0.00 | 0.00 | 99 | 1019.8 |
| 20260902122120 | 72 | 275 | 1.0 | 2.0 | 0.00 | 0.00 | 0.00 | 99 | 1019.8 |
| 20260902121614 | 71 | 288 | 2.0 | 2.0 | 0.00 | 0.00 | 0.00 | 99 | 1019.6 |
| 20260902121109 | 71 | 322 | 0.0 | 2.0 | 0.00 | 0.00 | 0.00 | 99 | 1019.7 |
| 20260902120605 | 71 | 290 | 1.0 | 2.0 | 0.00 | 0.00 | 0.00 | 99 | 1019.8 |
| 20260902120101 | 70 | 282 | 0.0 | 2.0 | 0.00 | 0.00 | 0.00 | 99 | 1019.7 |
| 20260902115556 | 70 | 323 | 2.0 | 2.0 | 0.00 | 0.00 | 0.00 | 99 | 1019.6 |
| 20260902115052 | 70 | 319 | 1.0 | 2.0 | 0.00 | 0.00 | 0.00 | 99 | 1019.7 |
| 20260902114548 | 70 | 311 | 1.0 | 2.0 | 0.00 | 0.00 | 0.00 | 99 | 1019.4 |
| 20260902114048 | 70 | 295 | 1.0 | 2.0 | 0.00 | 0.00 | 0.00 | 99 | 1019.5 |
| 20260902113543 | 69 | 316 | 0.0 | 1.0 | 0.00 | 0.00 | 0.00 | 99 | 1019.4 |
| 20260902113038 | 69 | 329 | 0.0 | 1.0 | 0.00 | 0.00 | 0.00 | 99 | 1019.2 |
| 20260902112534 | 69 | 308 | 0.0 | 1.0 | 0.00 | 0.00 | 0.00 | 99 | 1019.2 |
| 20260902112030 | 69 | 296 | 0.0 | 2.0 | 0.00 | 0.00 | 0.00 | 99 | 1019.3 |
| 20260902111526 | 69 | 309 | 0.0 | 2.0 | 0.00 | 0.00 | 0.00 | 99 | 1019.1 |
| 20260902111022 | 69 | 315 | 0.0 | 1.0 | 0.00 | 0.00 | 0.00 | 99 | 1019.2 |
| 20260902110518 | 69 | 307 | 0.0 | 1.0 | 0.00 | 0.00 | 0.00 | 99 | 1019.2 |
| 20260902110013 | 69 | 296 | 0.0 | 1.0 | 0.00 | 0.00 | 0.00 | 99 | 1019.2 |
| 20260902105508 | 69 | 269 | 0.0 | 1.0 | 0.00 | 0.00 | 0.00 | 99 | 1019.1 |
| 20260902105007 | 69 | 315 | 0.0 | 2.0 | 0.00 | 0.00 | 0.00 | 99 | 1019.3 |
| 20260902104503 | 69 | 239 | 0.0 | 1.0 | 0.00 | 0.00 | 0.00 | 99 | 1019.1 |
| 20260902103958 | 69 | 278 | 0.0 | 1.0 | 0.00 | 0.00 | 0.00 | 99 | 1019.1 |
| 20260902103454 | 69 | 304 | 0.0 | 1.0 | 0.00 | 0.00 | 0.00 | 99 | 1019.1 |
| 20260902102948 | 69 | 309 | 0.0 | 2.0 | 0.00 | 0.00 | 0.00 | 99 | 1019.1 |
| 20260902102445 | 70 | 279 | 1.0 | 2.0 | 0.00 | 0.00 | 0.00 | 99 | 1019.1 |
| 20260902101941 | 70 | 306 | 1.0 | 2.0 | 0.00 | 0.00 | 0.00 | 99 | 1019.2 |
| 20260902101435 | 70 | 330 | 0.0 | 1.0 | 0.00 | 0.00 | 0.00 | 99 | 1019.1 |
| 20260902100930 | 70 | 321 | 1.0 | 2.0 | 0.00 | 0.00 | 0.00 | 99 | 1018.6 |
| 20260902100429 | 69 | 322 | 0.0 | 2.0 | 0.00 | 0.00 | 0.00 | 99 | 1019.1 |
| 20260902095924 | 69 | 303 | 1.0 | 1.0 | 0.00 | 0.00 | 0.00 | 99 | 1019.0 |
| 20260902095420 | 69 | 317 | 0.0 | 1.0 | 0.00 | 0.00 | 0.00 | 99 | 1019.0 |
| 20260902094918 | 69 | 297 | 0.0 | 2.0 | 0.00 | 0.00 | 0.00 | 99 | 1019.1 |
| 20260902094414 | 70 | 291 | 1.0 | 2.0 | 0.00 | 0.00 | 0.00 | 99 | 1019.0 |
| 20260902093909 | 70 | 308 | 1.0 | 2.0 | 0.00 | 0.00 | 0.00 | 99 | 1018.9 |
| 20260902093404 | 70 | 303 | 0.0 | 1.0 | 0.00 | 0.00 | 0.00 | 99 | 1018.9 |
| 20260902092902 | 70 | 292 | 0.0 | 2.0 | 0.00 | 0.00 | 0.00 | 99 | 1019.0 |
| 20260902092358 | 70 | 312 | 0.0 | 1.0 | 0.00 | 0.00 | 0.00 | 99 | 1018.9 |
| 20260902091852 | 70 | 287 | 0.0 | 2.0 | 0.00 | 0.00 | 0.00 | 99 | 1019.0 |
| 20260902091348 | 70 | 308 | 1.0 | 1.0 | 0.00 | 0.00 | 0.00 | 99 | 1018.8 |
| 20260902090844 | 70 | 288 | 0.0 | 2.0 | 0.00 | 0.00 | 0.00 | 99 | 1018.8 |
| 20260902090344 | 70 | 309 | 0.0 | 1.0 | 0.00 | 0.00 | 0.00 | 99 | 1018.5 |
| 20260902085843 | 70 | 292 | 1.0 | 1.0 | 0.00 | 0.00 | 0.00 | 99 | 1018.8 |
| 20260902085338 | 70 | 305 | 0.0 | 2.0 | 0.00 | 0.00 | 0.00 | 99 | 1018.5 |
| 20260902084834 | 70 | 319 | 0.0 | 1.0 | 0.00 | 0.00 | 0.00 | 99 | 1018.5 |
| 20260902084330 | 70 | 278 | 0.0 | 1.0 | 0.00 | 0.00 | 0.00 | 99 | 1018.5 |
| 20260902083825 | 70 | 277 | 0.0 | 2.0 | 0.00 | 0.00 | 0.00 | 99 | 1018.5 |
| 20260902083319 | 70 | 269 | 0.0 | 2.0 | 0.00 | 0.00 | 0.00 | 99 | 1018.2 |
| 20260902082814 | 70 | 304 | 0.0 | 2.0 | 0.00 | 0.00 | 0.00 | 99 | 1018.3 |
| 20260902082311 | 70 | 277 | 0.0 | 1.0 | 0.00 | 0.00 | 0.00 | 99 | 1018.3 |
| 20260902081807 | 70 | 295 | 1.0 | 2.0 | 0.00 | 0.00 | 0.00 | 99 | 1018.4 |
| 20260902081302 | 70 | 283 | 0.0 | 2.0 | 0.00 | 0.00 | 0.00 | 99 | 1018.2 |
| 20260902080757 | 70 | 292 | 0.0 | 1.0 | 0.00 | 0.00 | 0.00 | 99 | 1018.3 |
| 20260902080254 | 70 | 286 | 0.0 | 2.0 | 0.00 | 0.00 | 0.00 | 99 | 1018.2 |
| 20260902075753 | 70 | 309 | 0.0 | 2.0 | 0.00 | 0.00 | 0.00 | 99 | 1018.1 |
| 20260902075249 | 70 | 300 | 0.0 | 2.0 | 0.00 | 0.00 | 0.00 | 99 | 1018.1 |
| 20260902074744 | 70 | 275 | 0.0 | 1.0 | 0.00 | 0.00 | 0.00 | 99 | 1018.1 |
| 20260902074240 | 70 | 290 | 0.0 | 1.0 | 0.00 | 0.00 | 0.00 | 99 | 1018.2 |
| 20260902073735 | 70 | 276 | 1.0 | 2.0 | 0.00 | 0.00 | 0.00 | 99 | 1018.0 |
| 20260902073231 | 71 | 279 | 0.0 | 1.0 | 0.00 | 0.00 | 0.00 | 99 | 1018.1 |
| 20260902072726 | 71 | 289 | 1.0 | 2.0 | 0.00 | 0.00 | 0.00 | 99 | 1018.1 |
| 20260902072222 | 71 | 291 | 0.0 | 1.0 | 0.00 | 0.00 | 0.00 | 99 | 1018.2 |
| 20260902071719 | 71 | 269 | 0.0 | 1.0 | 0.00 | 0.00 | 0.00 | 99 | 1018.0 |
| 20260902071213 | 71 | 326 | 0.0 | 2.0 | 0.00 | 0.00 | 0.00 | 99 | 1017.9 |
| 20260902070710 | 71 | 303 | 0.0 | 1.0 | 0.00 | 0.00 | 0.00 | 99 | 1018.1 |
| 20260902070209 | 71 | 296 | 0.0 | 1.0 | 0.00 | 0.00 | 0.00 | 99 | 1018.2 |
| 20260902065708 | 71 | 294 | 0.0 | 2.0 | 0.00 | 0.00 | 0.00 | 99 | 1018.1 |
| 20260902065204 | 71 | 256 | 0.0 | 1.0 | 0.00 | 0.00 | 0.00 | 99 | 1018.1 |
| 20260902064659 | 71 | 306 | 0.0 | 1.0 | 0.00 | 0.00 | 0.00 | 99 | 1018.2 |
| 20260902064154 | 71 | 324 | 1.0 | 2.0 | 0.00 | 0.00 | 0.00 | 99 | 1017.9 |
| 20260902063650 | 71 | 297 | 0.0 | 2.0 | 0.00 | 0.00 | 0.00 | 99 | 1017.9 |
| 20260902063144 | 71 | 282 | 1.0 | 2.0 | 0.00 | 0.00 | 0.00 | 99 | 1018.0 |
| 20260902062643 | 72 | 277 | 0.0 | 2.0 | 0.00 | 0.00 | 0.00 | 99 | 1018.1 |
| 20260902062138 | 72 | 313 | 1.0 | 2.0 | 0.00 | 0.00 | 0.00 | 99 | 1018.2 |
| 20260902061638 | 72 | 303 | 1.0 | 2.0 | 0.00 | 0.00 | 0.00 | 99 | 1018.2 |
| 20260902061134 | 72 | 304 | 0.0 | 2.0 | 0.00 | 0.00 | 0.00 | 99 | 1018.2 |
| 20260902060630 | 72 | 300 | 0.0 | 1.0 | 0.00 | 0.00 | 0.00 | 99 | 1018.2 |
| 20260902060126 | 72 | 315 | 0.0 | 2.0 | 0.00 | 0.00 | 0.00 | 99 | 1018.1 |
| 20260902055622 | 72 | 301 | 0.0 | 1.0 | 0.00 | 0.00 | 0.00 | 99 | 1018.2 |
| 20260902055117 | 72 | 323 | 0.0 | 1.0 | 0.00 | 0.00 | 0.00 | 99 | 1018.4 |
| 20260902054612 | 72 | 297 | 0.0 | 2.0 | 0.00 | 0.00 | 0.00 | 99 | 1018.2 |
| 20260902054108 | 72 | 321 | 0.0 | 2.0 | 0.00 | 0.00 | 0.00 | 99 | 1018.3 |
| 20260902053603 | 72 | 292 | 1.0 | 2.0 | 0.00 | 0.00 | 0.00 | 99 | 1018.1 |
| 20260902053102 | 72 | 308 | 1.0 | 2.0 | 0.00 | 0.00 | 0.00 | 99 | 1018.3 |
| 20260902052556 | 72 | 293 | 0.0 | 2.0 | 0.00 | 0.00 | 0.00 | 99 | 1018.4 |
| 20260902052053 | 72 | 320 | 1.0 | 1.0 | 0.00 | 0.00 | 0.00 | 99 | 1018.4 |
| 20260902051552 | 72 | 239 | 0.0 | 1.0 | 0.00 | 0.00 | 0.00 | 99 | 1018.3 |
| 20260902051051 | 72 | 269 | 0.0 | 2.0 | 0.00 | 0.00 | 0.00 | 99 | 1018.3 |
| 20260902050546 | 72 | 321 | 1.0 | 2.0 | 0.00 | 0.00 | 0.00 | 99 | 1018.3 |
| 20260902050041 | 72 | 290 | 1.0 | 1.0 | 0.00 | 0.00 | 0.00 | 99 | 1018.4 |
| 20260902045537 | 72 | 317 | 0.0 | 2.0 | 0.00 | 0.00 | 0.00 | 99 | 1018.4 |
| 20260902045033 | 73 | 224 | 0.0 | 2.0 | 0.00 | 0.00 | 0.00 | 99 | 1018.3 |
| 20260902044527 | 73 | 305 | 0.0 | 2.0 | 0.00 | 0.00 | 0.00 | 99 | 1018.3 |
| 20260902044023 | 72 | 300 | 1.0 | 2.0 | 0.00 | 0.00 | 0.00 | 99 | 1018.2 |
| 20260902043519 | 72 | 300 | 1.0 | 2.0 | 0.00 | 0.00 | 0.00 | 98 | 1018.3 |
| 20260902043018 | 72 | 286 | 0.0 | 2.0 | 0.00 | 0.00 | 0.00 | 98 | 1018.4 |
| 20260902042512 | 73 | 312 | 0.0 | 2.0 | 0.00 | 0.00 | 0.00 | 98 | 1018.3 |
| 20260902042008 | 73 | 269 | 0.0 | 1.0 | 0.00 | 0.00 | 0.00 | 98 | 1018.5 |
| 20260902041507 | 73 | 283 | 0.0 | 1.0 | 0.00 | 0.00 | 0.00 | 98 | 1018.5 |
| 20260902041002 | 73 | 290 | 0.0 | 1.0 | 0.00 | 0.00 | 0.00 | 98 | 1018.4 |
| 20260902040456 | 73 | 302 | 1.0 | 1.0 | 0.00 | 0.00 | 0.00 | 98 | 1018.3 |
| 20260902035955 | 73 | 269 | 0.0 | 1.0 | 0.00 | 0.00 | 0.00 | 98 | 1018.3 |
| 20260902035451 | 73 | 282 | 1.0 | 1.0 | 0.00 | 0.00 | 0.00 | 98 | 1018.3 |
| 20260902034950 | 73 | 284 | 0.0 | 1.0 | 0.00 | 0.00 | 0.00 | 98 | 1018.3 |
| 20260902034445 | 73 | 287 | 0.0 | 2.0 | 0.00 | 0.00 | 0.00 | 97 | 1018.4 |
| 20260902033944 | 73 | 306 | 0.0 | 1.0 | 0.00 | 0.00 | 0.00 | 97 | 1018.3 |
| 20260902033438 | 73 | 297 | 0.0 | 1.0 | 0.00 | 0.00 | 0.00 | 97 | 1018.3 |
| 20260902032937 | 74 | 271 | 0.0 | 1.0 | 0.00 | 0.00 | 0.00 | 97 | 1018.2 |
| 20260902032437 | 74 | 315 | 0.0 | 1.0 | 0.00 | 0.00 | 0.00 | 97 | 1018.2 |
| 20260902031932 | 74 | 304 | 0.0 | 1.0 | 0.00 | 0.00 | 0.00 | 97 | 1018.3 |
| 20260902031427 | 74 | 272 | 1.0 | 1.0 | 0.00 | 0.00 | 0.00 | 97 | 1018.2 |
| 20260902030924 | 74 | 302 | 0.0 | 2.0 | 0.00 | 0.00 | 0.00 | 97 | 1018.2 |
| 20260902030418 | 74 | 255 | 0.0 | 2.0 | 0.00 | 0.00 | 0.00 | 96 | 1018.4 |
| 20260902025917 | 74 | 269 | 0.0 | 2.0 | 0.00 | 0.00 | 0.00 | 96 | 1018.2 |
| 20260902025413 | 75 | 302 | 1.0 | 2.0 | 0.00 | 0.00 | 0.00 | 96 | 1018.4 |
| 20260902024908 | 75 | 293 | 0.0 | 1.0 | 0.00 | 0.00 | 0.00 | 96 | 1018.4 |
| 20260902024403 | 75 | 311 | 0.0 | 1.0 | 0.00 | 0.00 | 0.00 | 96 | 1018.4 |
| 20260902023859 | 75 | 323 | 0.0 | 1.0 | 0.00 | 0.00 | 0.00 | 96 | 1018.4 |
| 20260902023354 | 75 | 287 | 1.0 | 1.0 | 0.00 | 0.00 | 0.00 | 95 | 1018.5 |
| 20260902022853 | 75 | 283 | 0.0 | 1.0 | 0.00 | 0.00 | 0.00 | 95 | 1018.4 |
| 20260902022348 | 75 | 279 | 0.0 | 1.0 | 0.00 | 0.00 | 0.00 | 95 | 1018.5 |
| 20260902021844 | 75 | 315 | 0.0 | 1.0 | 0.00 | 0.00 | 0.00 | 95 | 1018.4 |
| 20260902021338 | 75 | 306 | 0.0 | 1.0 | 0.00 | 0.00 | 0.00 | 95 | 1018.4 |
| 20260902020834 | 76 | 291 | 0.0 | 1.0 | 0.00 | 0.00 | 0.00 | 94 | 1018.3 |
| 20260902020330 | 76 | 295 | 0.0 | 1.0 | 0.00 | 0.00 | 0.00 | 94 | 1018.3 |
| 20260902015825 | 76 | 284 | 0.0 | 1.0 | 0.00 | 0.00 | 0.00 | 94 | 1018.4 |
| 20260902015321 | 76 | 264 | 0.0 | 1.0 | 0.00 | 0.00 | 0.00 | 93 | 1018.2 |
| 20260902014817 | 76 | 306 | 0.0 | 1.0 | 0.00 | 0.00 | 0.00 | 93 | 1018.3 |
| 20260902014313 | 76 | 255 | 0.0 | 1.0 | 0.00 | 0.00 | 0.00 | 93 | 1018.4 |
| 20260902013812 | 77 | 290 | 0.0 | 1.0 | 0.00 | 0.00 | 0.00 | 92 | 1018.1 |
| 20260902013308 | 77 | 269 | 0.0 | 1.0 | 0.00 | 0.00 | 0.00 | 92 | 1018.3 |
| 20260902012803 | 77 | 0 | 0.0 | 0.0 | 0.00 | 0.00 | 0.00 | 91 | 1018.1 |
| 20260902012259 | 77 | 269 | 0.0 | 1.0 | 0.00 | 0.00 | 0.00 | 91 | 1017.9 |
| 20260902011754 | 77 | 321 | 0.0 | 1.0 | 0.00 | 0.00 | 0.00 | 90 | 1018.0 |
| 20260902011254 | 78 | 336 | 0.0 | 1.0 | 0.00 | 0.00 | 0.00 | 90 | 1018.1 |
| 20260902010747 | 78 | 319 | 0.0 | 1.0 | 0.00 | 0.00 | 0.00 | 90 | 1017.9 |
| 20260902010243 | 78 | 337 | 0.0 | 2.0 | 0.00 | 0.00 | 0.00 | 89 | 1017.9 |
| 20260902005742 | 78 | 308 | 0.0 | 1.0 | 0.00 | 0.00 | 0.00 | 89 | 1017.8 |
| 20260902005237 | 79 | 312 | 0.0 | 1.0 | 0.00 | 0.00 | 0.00 | 88 | 1017.8 |
| 20260902004731 | 79 | 327 | 1.0 | 1.0 | 0.00 | 0.00 | 0.00 | 87 | 1017.7 |
| 20260902004227 | 79 | 307 | 0.0 | 1.0 | 0.00 | 0.00 | 0.00 | 86 | 1017.9 |
| 20260902003721 | 79 | 313 | 0.0 | 1.0 | 0.00 | 0.00 | 0.00 | 86 | 1017.9 |
| 20260902003217 | 80 | 327 | 0.0 | 1.0 | 0.00 | 0.00 | 0.00 | 85 | 1018.0 |
| 20260902002712 | 80 | 236 | 0.0 | 1.0 | 0.00 | 0.00 | 0.00 | 83 | 1018.0 |
| 20260902002207 | 81 | 322 | 0.0 | 1.0 | 0.00 | 0.00 | 0.00 | 82 | 1017.9 |